Tracking 22879 objects as of 22-Apr-2021
HD Live streaming from Space Station
objects crossing your sky now

FLOCK 3K 5

Track FLOCK 3K 5 now!
10-day predictions
FLOCK 3K 5 is classified as:


NORAD ID: 43899
Int'l Code: 2018-111Z
Perigee: 474.9 km
Apogee: 505.0 km
Inclination: 97.2 °
Period: 94.3 minutes
Semi major axis: 6860 km
RCS: Unknown
Launch date: December 27, 2018
Source: United States (US)
Launch site: VOSTOCHNY COSMODROME (VOSTO)
aabbcc
Your satellite tracking list
Your tracking list is empty




NASA's NSSDC Master Catalog

Two Line Element Set (TLE):
1 43899U 18111Z   21111.68095250  .00008184  00000-0  30323-3 0  9991
2 43899  97.2401   8.8323 0021987 127.4525 232.8719 15.27659327129051
Source of the keplerian elements: AFSPC